Terminal Aerodrome Forecast
Issued by NWS Indianapolis, IN

Home | Current Version | Previous Version | Text Only | Print | Product List | Glossary On
Versions: 1 2 3 4 5 6 7 8 9 10 11 12 13 14 15 16 17 18 19 20 21 22 23 24 25 26 27 28 29 30
000
FTUS43 KIND 201100 AAA
TAFIND
TAF AMD
KIND 201132Z 2012/2118 25007KT 5SM BR BCFG SKC
     FM201600 27011KT P6SM SCT060
     FM210600 21007KT P6SM VCTS BKN040CB=

USA.gov is the U.S. government's official web portal to all federal, state and local government web resources and services.